Weather in Calafate

Argentina     50°20′19″S   72°16′23″W
temp.,
°C
wind,
m/s
gust,
m/s
humid.,
%
clouds,
%
prec.,
mm/h
press.,
hPa
HPBL,
m
22 april, thu
thu2200:00+5sse0150100 0.0 101185
03:00+6sw1148100 0.0 1011107
06:00+6e0052100 0.0 1011109
09:00+6w115179 0.0 1011128
12:00+7wsw214754 0.0 1011235
15:00+8sse014573 0.0 1011260
18:00+8ssw114782 0.0 1011174
21:00+7wsw2260100 0.0 101289
23 april, fri
fri2300:00+7wsw3371100 0.0 1012134
03:00+6w226740 0.0 1012102
06:00+6w116715 0.0 101281
09:00+6nw006713 0.0 101270
12:00+8wsw12628 0.0 1012255
15:00+9w22655 0.0 1012358
18:00+9wsw2366100 0.0 1012123
21:00+8w1170100 0.0 101311
24 april, sat
sat2400:00+7wsw1172100 0.0 101438
03:00+6wsw117343 0.0 101489
06:00+6w117299 0.0 101397
09:00+6wsw237219 0.0 1014139
12:00+8ne01625 0.0 1013202
15:00+9wsw22665 0.0 1013274
18:00+9sw22675 0.0 101382
21:00+8wsw33787 0.0 101456
25 april, sun
sun2500:00+7wsw22818 0.0 101584
03:00+6sw118111 0.0 101586
06:00+6ese018185 0.0 101472
09:00+6ene018029 0.0 101275
12:00+8se017378 0.0 1011190
15:00+11sw23647 0.0 1008426
18:00+10wsw33686 0.0 100679
21:00+9w22767 0.0 100624
26 april, mon
mon2600:00+8nnw128144 0.0 100517
03:00+8ene348134 0.0 100480
06:00+8nne2483100 0.0 100258
09:00+7ne038333 0.0 100053
12:00+11ene1669100 0.0 998344
15:00+12w586694 0.0 997333
18:00+10wsw347749 0.0 99782
21:00+8w458988 0.1 998177